Location: Gila Cliff Dwellings National Monument
(33.2240°N, 108.2417°W)
Time: 21:43:50
(UTC-06:00)

Cosmos 2322 Rocket - Visible Passes

Search period start: 28 August 2016 00:00
Search period end: 07 September 2016 00:00
Orbit: 833 x 850 km, 71.0° (Epoch: 27 August)

Date Brightness Start Highest point End Pass type
(mag) Time Alt. Az. Time Alt. Az. Time Alt. Az.
28 Aug 3.7 21:58:39 23° NE 21:58:39 23° NE 22:00:44 10° NNE visible
28 Aug 4.6 23:40:22 18° NW 23:40:22 18° NW 23:43:25 10° NNW visible
29 Aug 3.1 21:42:28 33° NE 21:42:28 33° NE 21:45:43 10° NNE visible
29 Aug 4.4 23:24:08 19° WNW 23:24:36 19° WNW 23:28:34 10° NNW visible
30 Aug 2.3 21:25:06 46° ESE 21:25:20 47° ESE 21:30:42 10° NNE visible
30 Aug 4.4 23:06:34 14° W 23:09:35 20° WNW 23:13:41 10° NNW visible
31 Aug 5.5 06:21:05 10° NE 06:22:46 11° NE 06:24:28 10° ENE visible
31 Aug 2.4 21:05:06 10° S 21:10:22 44° ESE 21:15:40 10° NE visible
31 Aug 4.4 22:50:22 10° WSW 22:54:35 21° WNW 22:58:48 10° N visible
01 Sep 5.6 06:06:37 10° NE 06:07:44 11° NE 06:08:53 10° ENE visible
01 Sep 2.5 20:50:12 10° S 20:55:24 41° ESE 21:00:38 10° NE visible
01 Sep 4.3 22:35:13 10° WSW 22:39:34 23° WNW 22:43:55 10° N visible
02 Sep 2.6 20:35:18 10° S 20:40:26 39° ESE 20:45:36 10° NE visible
02 Sep 4.3 22:20:06 10° WSW 22:24:33 24° WNW 22:29:01 10° N visible
03 Sep 2.7 20:20:24 10° S 20:25:28 37° ESE 20:30:34 10° NE visible
03 Sep 4.3 22:04:58 10° WSW 22:09:32 25° WNW 22:14:07 10° N visible
04 Sep 2.7 20:05:30 10° SSE 20:10:30 34° ESE 20:15:31 10° NE visible
04 Sep 4.2 21:49:52 10° WSW 21:54:31 26° WNW 21:59:13 10° N visible
05 Sep 2.8 19:50:37 10° SSE 19:55:32 32° ESE 20:00:28 10° NE visible
05 Sep 4.2 21:34:45 10° WSW 21:39:30 28° WNW 21:44:18 10° N visible
06 Sep 4.1 21:19:39 10° WSW 21:24:30 29° WNW 21:29:23 10° N visible
